Regional Weather Roundup
Issued by NWS

Home | Current Version | Previous Version | Graphics & Text | Print | Product List | Glossary On
Versions: 1 2 3 4 5 6 7 8 9 10 11 12 13 14 15 16 17 18 19 20 21 22 23 24 25 26 27 28 29 30 31 32 33 34 35 36 37 38 39 40 41 42 43 44 45 46 47 48 49 50
000
ASUS45 KSLC 041110
RWRUT

UTAH REGIONAL WEATHER ROUNDUP
NATIONAL WEATHER SERVICE SALT LAKE CITY UT
500 AM MDT SAT JUL 04 2015

UTZ001>011-023>025-041200-

NORTHERN UTAH

CITY           SKY/WX    TMP DP  RH WIND       PRES   REMARKS
BRIGHAM CITY   MOCLDY    73  53  47 CALM      29.92R
HILL AFB       CLOUDY    73  46  37 E16       29.95S
LOGAN          CLEAR     68  57  68 CALM      29.95R
OGDEN          MOCLDY    75  46  35 S6        29.92S
PROVO AIRPORT  CLOUDY    73  45  35 SE7       29.96S
SALT LAKE CITY MOCLDY    81  50  33 S9        29.90S
VERNAL         PTCLDY    68  47  46 W5        30.02R
WENDOVER       PTCLDY    81  45  28 SE3       29.92S
HEBER CITY     PTCLDY    59  48  67 CALM      30.07S
WEST JORDAN    CLEAR     75  46  35 CALM      29.95R

$$

UTZ012>022-026-027-041200-

SOUTHERN/CENTRAL UTAH

CITY           SKY/WX    TMP DP  RH WIND       PRES   REMARKS
BLANDING       CLOUDY    67  51  55 N5        30.23R
BRYCE CANYON   CLOUDY    58  52  80 CALM      30.27R
CEDAR CITY     CLOUDY    73  48  41 SW6       30.08S
DELTA          MOCLDY    73  40  30 E5        29.97S
HANKSVILLE     MOCLDY    75  50  41 CALM      30.01R
MILFORD        CLOUDY    77  49  37 S15       30.00R
MOAB/CYNLANDS  CLEAR     75  54  47 SE13      30.01R
PRICE          PTCLDY    73  43  33 E8        30.09R
ST GEORGE      MOSUNNY   86  54  32 E12       29.90S
KANAB          CLOUDY    73  57  56 SE7       30.12R

$$

REGIONAL REPORTS     COLORADO/ARIZONA

CITY           SKY/WX    TMP DP  RH WIND       PRES   REMARKS
CRAIG, CO      PTCLDY    51  45  79 CALM      30.12R
GRAND JUNCTION CLOUDY    73  49  42 E16       30.03S
RIFLE          PTCLDY    62  55  77 CALM      30.12R
MONTROSE       CLOUDY    67  47  48 S6        30.16R
CORTEZ         CLEAR     59  50  72 NE6       30.18R
PAGE, AZ       MOCLDY    77  55  46 SE8       30.01S
GRAND CANYON   LGT RAIN  62  55  77 CALM      30.20R
KINGMAN        CLOUDY    81  51  35 S3        29.94S
FLAGSTAFF      CLOUDY    58  56  93 E3        30.21F

$$

REGIONAL REPORTS    NEVADA/IDAHO/WYOMING

CITY           SKY/WX    TMP DP  RH WIND       PRES   REMARKS
LAS VEGAS, NV  CLOUDY    93  33  12 S10       29.75S
ELY            CLOUDY    60  47  61 S9        30.12S
ELKO           CLEAR     60  54  80 E5        30.04R
POCATELLO, ID  CLEAR     69  47  45 SW10      29.94S
BURLEY         PTCLDY    65  49  56 CALM      29.91R
EVANSTON, WY   PTCLDY    64  41  42 SE6       30.16S
ROCK SPRINGS   CLEAR     63  40  42 SW7       30.12S
KEMMERER       PTCLDY    61  43  51 N7        30.17S

$$



USA.gov is the U.S. government's official web portal to all federal, state and local government web resources and services.